Theta_e
337 343 348 349 348 345 345 343 342 340 340 340 341 342 340 340 341 340 339 337 337 336 337 336 336 335 335 335 336 336 337 337 337 339 340 339 339 337 335 334 333 329 333
340 344 346 348 345 344 343 342 343 342 341 340 339 341 340 342 339 338 337 337 337 337 336 335 335 334 334 335 335 336 339 339 339 338 337 337 336 334 332 332 332 328 331
341 344 344 346 345 343 343 343 342 341 341 338 336 342 339 338 341 338 336 336 336 335 334 334 333 333 335 335 336 337 339 339 338 336 334 328 327 333 330 329 329 330 329
343 344 342 343 344 342 343 343 342 342 340 339 336 338 340 340 341 339 336 335 335 334 334 334 334 332 334 334 335 335 338 338 335 333 328 326 325 329 329 329 329 329 329
341 343 341 343 344 342 342 342 342 342 340 337 336 336 341 341 342 338 335 334 334 333 333 333 332 333 332 332 333 336 337 335 334 330 325 324 321 326 328 327 326 326 327
339 341 341 343 344 342 342 341 340 340 340 338 338 336 340 339 339 337 335 335 335 333 333 333 332 331 330 331 332 336 335 333 330 326 325 326 323 326 326 326 326 325 325
337 340 340 342 343 343 341 340 340 339 339 340 338 335 337 340 338 338 335 334 332 332 332 332 331 330 329 330 331 331 333 331 325 325 324 323 323 325 324 325 324 325 324
338 340 340 337 339 341 341 340 341 340 340 339 336 337 337 336 339 336 335 334 333 333 332 331 330 329 328 328 329 329 331 328 324 323 324 324 327 324 324 323 323 323 323
338 339 338 338 337 335 337 338 339 340 339 339 337 336 335 333 337 335 332 337 334 333 332 331 330 328 327 327 328 327 328 326 321 323 323 321 326 323 323 322 321 321 321
337 336 336 336 336 335 335 331 333 336 336 336 334 332 330 330 330 331 328 334 335 334 332 331 330 329 326 325 326 326 325 325 321 320 321 320 326 322 321 321 320 320 319
334 334 335 335 335 334 333 330 329 330 331 331 328 327 324 322 323 323 324 328 334 333 332 331 330 330 329 326 325 324 321 317 317 317 317 325 326 323 321 320 319 318 318
330 332 333 334 333 334 335 330 329 329 328 326 324 322 321 320 320 322 321 324 331 331 332 330 330 330 325 318 317 320 316 316 316 315 317 326 323 324 323 321 319 318 317
327 330 332 333 333 333 333 330 329 327 325 323 322 320 321 321 319 319 320 321 323 322 322 326 324 321 320 319 320 317 316 314 313 313 317 325 325 325 324 322 321 319 318
323 325 328 332 332 332 333 330 329 327 324 323 321 321 319 319 317 318 319 320 319 320 318 318 318 318 317 318 321 319 315 314 313 312 313 320 325 325 325 324 322 321 319
323 324 324 327 329 331 331 331 329 327 325 324 322 322 321 319 319 319 320 319 318 318 317 316 317 317 317 318 319 319 316 316 313 313 311 314 319 323 326 325 323 323 321
324 325 324 323 327 330 330 329 329 328 327 325 323 323 322 321 320 319 319 318 317 317 317 316 317 317 317 318 319 321 322 320 314 313 312 312 318 321 324 325 325 324 324
325 326 325 324 325 328 330 328 328 328 328 326 325 324 323 322 321 321 319 318 317 317 317 316 316 316 316 318 318 320 320 319 315 313 312 311 312 318 321 325 325 325 325
326 326 327 327 325 327 329 329 329 328 328 327 325 324 324 323 322 320 319 318 318 317 317 315 315 315 315 315 315 316 319 317 315 314 312 311 310 312 315 321 324 324 325
327 327 327 327 325 324 328 329 328 327 327 327 326 325 324 324 323 321 319 319 318 317 315 315 315 315 314 315 315 315 316 315 315 316 312 311 310 310 310 314 319 321 323
327 327 327 328 327 325 325 327 328 327 327 328 327 326 324 323 323 320 319 318 318 317 315 314 314 315 315 315 316 315 316 316 313 312 313 313 310 310 309 309 309 312 317
325 326 326 326 328 326 325 323 324 324 326 326 327 327 325 323 322 321 320 318 317 316 316 315 315 315 315 314 313 313 314 314 315 313 313 313 311 310 308 309 309 308 309
323 324 326 326 327 326 327 327 327 326 326 327 328 327 326 324 322 321 321 319 318 316 315 315 316 314 316 315 313 312 309 307 308 312 312 313 313 311 309 308 308 308 307
320 322 324 325 326 327 328 327 326 324 322 322 325 326 326 326 324 322 321 320 319 318 317 316 316 315 314 312 315 312 303 301 302 306 306 309 311 307 309 308 308 308 307
315 321 323 325 325 327 328 327 325 324 323 325 326 327 326 326 325 323 323 321 320 320 319 318 317 316 316 313 310 316 312 305 303 301 305 305 306 307 308 307 308 307 307
307 314 319 323 323 325 327 327 325 324 326 326 326 325 325 325 325 323 323 322 321 321 320 319 318 316 317 316 314 308 314 312 307 307 306 305 306 306 308 309 309 308 306
304 306 312 316 319 322 325 326 326 324 324 324 324 324 325 325 324 324 322 322 322 321 320 320 320 318 317 317 317 316 312 309 311 309 308 309 307 307 309 309 307 307 306
Wind_Speed
3 5 11 14 15 13 13 13 15 13 13 11 11 12 13 14 14 15 15 15 15 15 15 15 15 14 14 13 13 12 12 10 10 11 19 20 20 20 19 17 13 8 15
9 6 11 12 13 14 13 13 12 13 13 13 12 9 15 13 15 15 14 14 14 14 15 15 14 14 13 12 9 9 10 12 16 15 16 18 21 17 15 14 14 11 15
11 7 9 13 13 14 13 12 11 12 13 13 10 13 15 12 14 16 14 12 12 14 13 13 13 13 12 9 8 11 13 13 16 14 13 7 11 15 14 14 13 14 14
12 8 9 12 13 14 12 11 11 11 12 14 13 11 14 11 15 14 15 11 12 13 12 12 12 11 8 8 8 9 13 15 14 13 7 7 9 13 13 12 13 13 12
11 9 9 12 14 13 12 11 10 12 12 11 13 9 14 12 16 15 14 11 10 11 10 11 11 9 8 8 9 10 15 14 11 9 6 7 5 10 12 11 10 10 10
10 9 11 13 14 14 12 12 9 7 15 12 14 11 10 13 14 14 14 12 11 9 11 10 9 7 8 8 9 11 14 13 8 5 8 9 7 9 10 9 10 10 10
9 9 10 12 13 13 13 12 10 9 9 14 11 12 10 14 15 14 14 10 10 11 9 8 8 6 8 8 8 9 9 9 5 5 6 5 5 7 8 8 8 9 10
11 10 9 10 10 11 11 12 11 11 12 10 12 11 9 9 13 11 13 12 9 10 8 7 6 5 7 8 9 9 6 8 5 5 6 4 7 5 7 7 8 8 7
10 10 8 7 8 9 10 8 10 10 12 10 11 11 9 11 12 10 10 10 14 10 9 7 5 4 4 5 7 8 6 7 5 4 4 3 6 4 6 6 5 6 6
10 8 10 8 7 6 6 9 8 8 10 10 10 11 8 7 10 10 10 7 11 12 9 8 6 4 1 2 4 6 3 6 5 5 3 2 7 2 4 4 4 4 5
7 9 8 9 8 7 6 6 8 8 8 8 7 9 7 4 5 7 7 10 9 8 8 7 6 5 2 3 4 3 5 1 1 3 3 6 6 6 4 4 3 3 4
9 8 10 9 9 8 7 7 5 5 4 5 5 6 4 4 4 3 4 9 9 9 7 7 6 5 3 2 3 4 1 3 3 2 2 7 5 7 7 6 5 4 4
10 9 10 10 10 10 8 6 4 4 3 4 6 6 5 4 4 3 2 2 3 6 3 4 3 3 4 3 4 3 3 3 3 3 4 7 7 7 8 8 7 6 6
8 11 12 11 10 10 7 7 7 6 5 5 6 7 5 3 4 4 3 4 4 3 5 4 3 4 5 6 6 5 5 4 3 3 4 7 7 8 9 9 9 8 8
9 10 11 12 10 10 9 7 6 7 6 7 6 7 6 5 6 5 5 4 4 4 4 4 4 4 5 5 5 6 6 6 6 3 3 8 8 9 11 9 9 10 10
8 10 9 10 12 11 10 9 8 7 7 7 6 7 8 6 5 6 6 5 4 4 4 5 5 5 5 5 6 6 6 5 6 6 4 4 9 9 11 12 11 12 12
12 8 10 11 11 13 14 10 8 8 8 8 8 10 10 9 8 9 6 5 6 5 6 4 5 4 4 4 6 5 5 6 5 6 5 4 5 9 10 13 14 13 14
13 15 11 11 12 13 12 10 8 8 8 8 8 8 12 11 9 8 6 6 6 5 5 4 4 4 5 5 4 5 5 5 7 7 5 4 4 4 7 13 15 16 16
17 16 16 13 15 13 12 10 10 10 9 8 7 8 11 12 11 9 7 6 6 5 5 6 5 4 4 4 5 5 5 4 6 5 7 6 7 5 4 10 14 14 17
15 16 15 13 16 14 10 9 8 7 9 8 9 9 10 10 11 9 7 7 6 6 6 4 6 5 4 5 4 5 5 5 4 5 7 6 6 7 7 7 5 6 14
12 14 17 15 16 12 11 9 9 11 9 8 9 11 12 11 12 11 9 7 7 8 9 9 6 8 7 3 2 3 4 6 6 6 6 7 7 8 7 7 6 5 6
19 17 15 17 15 13 10 11 10 8 8 9 8 11 13 14 13 12 12 10 10 8 8 9 10 5 6 6 4 1 5 5 4 7 6 8 11 6 7 8 8 8 7
15 16 17 17 17 16 16 9 6 2 2 4 8 10 11 14 14 15 14 12 10 10 10 11 11 12 9 4 9 6 2 6 1 2 6 6 8 5 6 6 8 9 9
12 13 13 14 16 15 16 13 16 13 13 12 12 10 10 13 15 15 15 14 13 10 13 11 10 11 10 9 2 9 6 4 4 4 3 4 5 7 8 6 7 8 9
6 8 9 12 13 14 14 17 13 14 12 10 8 12 12 11 14 14 14 14 14 11 13 13 11 12 11 11 9 3 9 8 4 7 11 5 3 5 6 7 7 7 8
3 2 4 7 8 8 10 15 16 17 15 10 10 9 10 9 9 13 13 14 13 14 14 13 14 14 13 12 11 10 8 6 11 9 10 13 8 5 7 7 6 7 6
Wind_Direction
173 161 140 128 119 120 115 114 117 120 118 121 124 104 102 101 107 103 98 93 90 98 93 91 85 84 84 80 69 55 53 52 49 60 71 65 62 56 51 49 48 46 64
147 157 138 124 128 124 124 124 122 122 122 125 119 128 116 103 111 104 99 96 101 99 95 89 87 86 90 85 67 47 40 51 80 72 67 68 62 54 55 56 58 61 68
146 147 134 128 132 131 129 128 130 129 127 118 128 118 115 112 115 110 110 107 108 105 100 94 91 88 86 74 56 46 47 94 88 79 68 64 68 59 57 58 65 70 78
141 140 137 136 139 137 132 130 138 134 129 129 133 130 118 120 128 118 113 116 115 109 104 99 94 97 85 60 50 51 84 85 84 76 61 63 68 62 64 72 72 70 73
139 138 143 143 145 145 145 142 141 142 134 133 130 144 130 123 130 123 117 124 117 118 109 100 99 90 80 65 42 30 102 93 81 76 74 69 69 67 76 75 70 79 77
142 142 149 151 152 150 144 139 134 148 144 141 139 154 133 136 134 127 126 129 122 125 119 106 103 93 79 73 63 65 100 101 86 75 81 70 64 77 82 81 83 81 76
143 148 152 155 156 157 153 148 147 138 140 139 149 157 148 133 132 128 131 135 140 124 118 121 108 89 75 74 66 61 105 97 96 81 79 88 81 80 85 84 87 88 88
148 153 155 157 158 160 162 159 155 164 144 143 156 150 170 146 137 133 142 149 139 131 131 124 109 88 76 79 70 55 91 113 91 84 85 83 94 89 93 89 87 86 96
155 154 153 158 164 170 165 168 163 156 149 152 152 161 175 171 144 134 163 163 154 148 147 145 136 113 84 75 74 61 86 122 109 103 107 99 85 98 95 96 100 104 108
154 165 158 161 163 176 176 169 173 168 161 160 166 156 173 197 173 150 173 158 146 149 163 166 163 157 138 59 62 83 81 140 126 128 108 130 119 112 110 107 110 112 118
158 166 166 172 173 171 176 182 175 176 173 173 168 166 173 183 197 174 168 184 152 157 175 179 183 183 228 320 326 24 106 175 148 132 144 186 157 152 148 154 152 144 152
179 179 177 180 183 176 179 168 180 182 179 175 176 176 168 180 193 183 187 198 165 170 184 191 188 190 220 276 300 337 72 146 146 167 186 207 215 186 169 196 192 190 186
183 183 187 185 187 181 182 177 179 175 177 183 188 185 189 178 197 201 201 198 170 189 197 198 204 196 221 235 257 242 210 169 167 179 211 213 212 228 197 200 211 207 208
189 192 187 193 185 189 186 183 188 183 183 190 195 194 182 186 197 200 192 196 193 194 202 207 208 213 225 238 255 250 187 190 183 193 220 228 234 235 227 213 224 223 222
211 204 192 187 192 191 187 191 191 198 191 194 200 204 195 195 192 195 207 199 202 193 199 206 215 213 226 227 228 210 207 201 199 197 208 231 228 242 246 239 235 231 233
212 211 209 192 190 188 195 192 191 198 193 192 201 207 202 200 199 199 203 205 209 200 201 201 212 217 225 215 231 208 217 204 210 208 210 223 230 238 245 244 239 239 240
215 209 212 207 193 188 197 193 193 199 195 197 203 207 207 199 199 199 207 202 212 205 208 209 227 225 236 231 234 216 229 215 217 218 218 212 228 240 241 244 242 246 249
207 209 208 210 201 198 199 197 201 198 200 203 199 202 208 208 199 198 202 209 204 203 207 201 209 226 225 221 232 244 220 204 215 224 224 212 214 222 242 243 244 247 251
209 204 209 202 207 197 202 203 207 204 207 207 202 203 205 208 204 202 209 211 196 204 204 208 214 196 207 226 233 241 237 217 217 225 230 223 221 216 219 239 241 244 251
211 208 206 203 207 200 192 203 206 210 214 211 209 206 203 207 205 203 211 207 198 204 211 204 210 208 204 209 228 242 244 230 218 226 232 229 224 219 219 223 231 243 243
210 208 209 201 206 197 199 195 208 213 213 217 217 214 204 206 204 206 215 205 200 211 214 211 210 215 231 209 215 261 272 251 233 222 223 235 234 225 213 224 223 227 239
211 207 208 210 201 203 208 208 213 211 219 222 214 216 209 205 202 207 212 210 206 211 210 208 210 218 229 181 199 190 265 298 267 237 223 230 240 222 221 220 218 223 226
213 206 209 209 204 203 207 204 203 190 188 203 221 221 214 209 207 208 207 211 209 210 219 217 212 213 226 205 203 198 195 229 313 261 237 228 238 214 230 219 222 223 223
222 216 216 214 212 206 198 202 208 212 216 222 230 232 223 215 214 212 214 207 209 209 221 217 214 216 215 222 219 232 233 156 194 303 287 246 225 231 231 226 223 224 224
246 228 223 222 218 213 202 203 205 216 224 223 224 227 221 215 217 216 213 211 213 213 219 220 214 211 213 221 216 178 229 235 231 234 276 253 285 227 233 226 215 222 221
46 93 210 217 215 209 211 213 212 218 223 221 225 226 226 223 215 219 215 219 219 220 219 218 219 217 216 217 222 215 206 197 221 219 240 254 241 237 227 231 214 223 222